Location: Meanaryar
(48.4161°N, 4.7315°W)
Time: 06:23:17
(UTC+00:00)

Lacrosse 4 Rocket - Pass Details

Date: 18 September 2020
Orbit: 543 x 615 km, 68.0° (Epoch: 23 October)

Event Time Altitude Azimuth Distance (km) Brightness Sun altitude
Rises 22:35:50 0° 325° (NW) 2,717 5.9 -35.9°
Reaches altitude 10° 22:38:02 10° 323° (NW) 1,824 4.7 -36.1°
Enters shadow 22:38:25 12° 323° (NW) 1,668 4.5 -36.1°
